Location: *
(37.9756°S, 156.6874°W)
Time: 19:26:24
(UTC+00:00)

Daily predictions for brighter satellites

Satellite Brightness Start Highest point End
(mag) Time Altitude Azimuth Time Altitude Azimuth Time Altitude Azimuth
CZ-4C R/B 4.0 13:25:54 39° SSE 13:25:54 39° SSE 13:30:05 10° SSE
CENTAUR R/B 3.3 13:44:15 60° SE 13:44:15 60° SE 13:49:50 10° SSE
Lacrosse 5 rocket 4.2 13:57:47 16° E 13:57:47 16° E 13:58:49 10° ENE
SL-16 R/B 3.1 13:53:18 10° SSE 13:58:09 54° SE 13:58:09 54° SE
Cosmos 1975 4.3 14:38:18 17° NNE 14:40:51 36° E 14:44:33 10° SSE
Cosmos 614 Rocket 4.0 14:43:36 66° N 14:43:36 66° N 14:47:57 10° NNE
Cosmos 2228 Rocket 4.4 14:39:02 10° S 14:43:27 42° ESE 14:47:45 10° NNE
In-Cosmos 22 4.0 14:39:21 10° S 14:44:45 86° E 14:50:03 10° N
Timation 2 Rocket 3.9 14:50:56 54° WSW 14:51:01 54° WSW 14:56:56 10° SSE
NOSS 3-2 (A) 4.3 14:49:02 44° W 14:51:29 55° SW 14:59:20 10° SSE
Cosmos 1655 Rocket 4.0 14:47:49 10° SSW 14:54:01 55° W 15:00:07 10° NNW
ARGOS 3.0 14:49:05 10° N 14:54:28 82° WNW 14:59:56 10° SSW
Meteor 2-10 4.1 14:52:54 37° NNW 14:55:12 74° W 15:00:49 10° S
Meteor 1-23 Rocket 4.4 14:50:19 10° S 14:56:13 79° E 15:02:01 10° NNE
Cosmos 1340 4.4 14:54:32 10° NNE 14:57:38 31° E 15:00:47 10° SSE
Meteor 1-13 Rocket 4.1 14:52:47 10° SSW 14:58:14 57° W 15:03:38 10° N
ARIANE 5 R/B 2.4 14:53:43 10° N 14:58:50 64° WNW 15:03:57 10° SSW
Cosmos 1269 Rocket 3.9 15:04:30 10° SSW 15:09:54 87° WNW 15:15:13 10° NNE
USA 238 DEB 4.2 15:02:24 10° NNW 15:10:20 71° ENE 15:17:52 10° SE
USA 238 4.2 15:02:32 10° NNW 15:10:28 70° ENE 15:17:59 10° SE
CZ-4C R/B 4.2 15:11:01 20° SW 15:12:06 21° SW 15:17:18 10° S
DELTA 2 R/B (1) 3.5 15:10:18 44° W 15:12:09 81° S 15:17:46 10° E
Cosmos 2285 Rocket 4.4 15:11:09 10° SSW 15:17:38 69° ESE 15:23:58 10° NNE
Cosmos 1844 Rocket 4.2 15:19:02 18° SW 15:19:02 18° SW 15:21:59 10° S
DMSP B5D2-2 4.1 15:13:18 10° SSE 15:18:39 82° ENE 15:23:54 10° N
Cosmos 1633 Rocket 3.0 15:14:46 10° N 15:19:11 89° W 15:23:42 10° S
NOAA 12 4.1 15:14:58 10° N 15:20:07 58° W 15:25:22 10° SSW
Milstar 3 Cent rocket 4.3 15:13:31 12° NW 15:21:12 28° N 15:26:24 10° ENE
Cosmos 220 Rocket 4.0 15:27:46 17° SSW 15:30:50 51° WNW 15:34:53 10° N
SeaSat 1 2.4 15:26:06 10° NNE 15:30:58 63° WNW 15:35:55 10° SSW
Lacrosse 5 rocket 2.3 15:32:47 29° WNW 15:33:07 29° WNW 15:36:54 10° N
CENTAUR R/B 4.0 15:31:26 21° WSW 15:33:53 24° SW 15:39:19 10° S
Cosmos 1140 Rocket 4.0 15:29:43 10° S 15:34:51 60° ESE 15:39:56 10° NNE
S3M 4.3 15:28:34 10° N 15:34:54 74° E 15:41:21 10° S
Cosmos 1943 Rocket 4.2 15:32:21 10° NNE 15:37:12 30° ENE 15:42:03 10° SE
Cosmos 1805 3.8 15:37:04 31° W 15:37:19 31° WSW 15:40:45 10° SSW
CZ-2D R/B 4.0 15:33:53 10° NNW 15:37:55 38° W 15:42:02 10° SSW
SL-16 R/B 3.8 15:38:23 10° SSW 15:42:25 18° WSW 15:43:13 18° WSW
PSLV R/B 3.4 15:39:12 10° N 15:43:18 67° WNW 15:47:29 10° SSW
BREEZE-M DEB (TANK) 3.2 15:36:37 10° SW 15:45:02 87° NW 15:47:54 10° NE
Cosmos 407 Rocket 4.4 15:40:35 10° S 15:45:40 51° ESE 15:50:45 10° NE
BREEZE-M DEB (TANK) 4.3 15:43:20 13° SW 15:46:21 53° SE 15:56:16 10° ENE
BREEZE-M DEB (TANK) 3.6 15:45:50 23° W 15:47:33 37° SW 15:49:57 10° SE
SMAP 3.4 15:44:11 10° NNE 15:48:50 69° ESE 15:53:32 10° S
Cosmos 1023 Rocket 4.4 15:45:11 10° SSW 15:50:21 89° E 15:55:30 10° NNE
[s.n.70599] 3.8 15:51:03 19° SW 15:52:17 29° S 15:54:37 10° ESE
Cosmos 1862 Rocket 3.8 15:47:58 10° SSW 15:52:19 47° W 15:56:38 10° NNW
GEOS 3 Rocket 4.2 15:49:10 10° SSE 15:54:02 40° SW 15:58:47 11° WNW
Cosmos 2315 Rocket 4.3 15:53:34 10° N 15:59:48 77° E 16:06:11 10° S
ASTEX 1 3.9 15:54:58 10° SSE 15:59:55 65° E 16:04:48 10° N
SL-4 R/B 2.7 15:57:07 10° NNW 16:00:55 54° NE 16:05:02 10° ESE
Cosmos 1833 Rocket 2.7 15:56:09 10° SSW 16:01:52 85° WNW 16:07:31 10° NNE
Cosmos 1386 Rocket 4.4 15:57:44 10° SSW 16:03:43 61° W 16:09:37 10° N
Cosmos 1470 Rocket 3.9 16:00:21 10° NNW 16:04:39 44° W 16:09:01 10° S
Okean 1-7 2.9 16:03:11 10° SSW 16:07:32 71° W 16:11:48 10° N
BREEZE-M R/B 4.0 16:06:37 10° SW 16:09:08 49° SE 16:14:39 10° ENE
Cosmos 1315 Rocket 4.4 16:09:52 10° S 16:13:44 40° ESE 16:17:31 10° NNE
Cosmos 2082 Rocket 3.8 16:10:49 10° S 16:16:01 36° ESE 16:21:11 10° NE
Cosmos 1766 3.8 16:12:51 10° NW 16:16:18 34° WSW 16:19:49 10° SSW
Cosmos 2278 Rocket 2.2 16:12:33 10° NNW 16:18:10 65° WSW 16:23:52 10° SSE
Cosmos 1709 Rocket 4.0 16:12:10 10° S 16:18:30 82° W 16:24:39 10° N
Cosmos 1400 Rocket 3.8 16:17:31 10° SW 16:20:39 24° W 16:23:45 10° NW
CZ-4B R/B 3.9 16:18:20 10° NNE 16:22:24 89° ESE 16:26:22 10° SSW
BREEZE M DEB (TANK) 4.2 16:19:52 10° WSW 16:22:54 27° S 16:29:39 10° ESE
Okean 2 3.5 16:19:36 10° SSW 16:23:37 52° W 16:27:35 10° N
Cosmos 2251 Rocket 3.6 16:19:34 10° SSW 16:24:58 74° WNW 16:30:16 10° N
EXPRESS MD2 1.9 16:23:15 10° SW 16:25:29 85° SSE 16:27:55 10° NE
